Tracking 30922 objects as of 2-Jul-2025
HD Live streaming from Space Station
objects crossing your sky now

AEROCUBE 2

Track AEROCUBE 2 now!
10-day predictions
AEROCUBE 2 is classified as:


NORAD ID: 31133
Int'l Code: 2007-012R
Perigee: 631.7 km
Apogee: 734.0 km
Inclination: 98.4 °
Period: 98.3 minutes
Semi major axis: 7053 km
RCS: 0.0127 m2 (small)
Launch date: April 17, 2007
Source: United States (US)
Launch site: TYURATAM MISSILE AND SPACE COMPLEX (TTMTR)

Uplink (MHz):
Downlink (MHz): 902-928
Beacon (MHz):
Mode: 9600bps GFSK
Call sign:
Status: Inactive

Your satellite tracking list
STARLINK-5219
Track 1 satellite(s)




NASA's NSSDC Master Catalog

Two Line Element Set (TLE):
1 31133U 07012R   25182.87318293  .00001127  00000-0  21033-3 0  9993
2 31133  98.3950 154.0483 0072476 340.9763  18.8734 14.65421742969034
Source of the keplerian elements: AFSPC